{"data":{"norad_id":65751,"epoch":"2026-09-20T02:40:00.984864Z","epoch_age_seconds":142101,"freshness":"FRESH","line1":"1 65751U 25216T   26263.11112251  .00013800  00000+0  41864-3 0  9990","line2":"2 65751  53.1585 147.4614 0001220  70.3906 289.7229 15.34412990 56345","mean_motion":15.3441299,"eccentricity":0.000122,"inclination_deg":53.1585,"raan_deg":147.4614,"arg_perigee_deg":70.3906,"mean_anomaly_deg":289.7229,"bstar":0.00041864,"rev_number":5634,"period_min":93.846963587033,"perigee_km":461.83005366293,"apogee_km":463.499209261,"semimajor_km":6840.801631462,"source":"CELESTRAK","updated_at":"2026-09-21T09:00:35.710563Z"}}